Ozark, AL

6:06 PM CDT on July 23, 2017 (GMT -0500)
Cairns Army Air Field

Weather History for KOZR - July, 2013

Change the Weather History Date:

Thursday, July 18, 2013

  Actual Average Record
Temperature  
Mean Temperature 80 °F -  
Max Temperature 91 °F 88 °F 102 °F (2000)
Min Temperature 69 °F 69 °F 66 °F (2014)
Cooling Degree Days 15    
Growing Degree Days 30 (Base 50)    
Moisture  
Dew Point 71 °F    
Average Humidity 78    
Maximum Humidity 95    
Minimum Humidity 50    
Precipitation  
Precipitation 0.00 in - - ()
Sea Level Pressure  
Sea Level Pressure 30.12 in    
Wind  
Wind Speed 6 mph (East)    
Max Wind Speed 10 mph    
Max Gust Speed -    
Visibility 8 miles    
Events      
Averages and records for this station are not official NWS values.
T = Trace of Precipitation, MM = Missing Value Source: NWS Daily Summary

Daily Weather History Graph

Daily Weather History Graph

Search for Another Location

Airport or City:

Trip Planner

Search our weather history database for the weather conditions in past years. The results will help you decide how hot, cold, wet, or windy it might be!

Date:

Astronomy

Jul. 18, 2013 Rise Set
Actual Time 5:51 AM CDT 7:46 PM CDT
Civil Twilight 5:23 AM CDT 8:14 PM CDT
Nautical Twilight 4:50 AM CDT 8:46 PM CDT
Astronomical Twilight 4:15 AM CDT 9:21 PM CDT
Moon 3:44 PM CDT (7/18) 1:37 AM CDT (7/18)
Length of Visible Light 14h 50m
Length of Day
13h 55m
Waxing Gibbous, 77% of the Moon is Illuminated
Jul 18
Waxing Gibbous
Jul 22
Full
Jul 29
Last Quarter
Aug 6
New
Aug 14
First Quarter

Hourly Weather History & Observations

Time (CDT) Temp. Heat Index Dew Point Humidity Pressure Visibility Wind Dir Wind Speed Gust Speed Precip Events Conditions
12:58 AM 72.9 °F - 68.2 °F 85% 30.16 in 10.0 mi NE 8.1 mph - N/A   Clear
1:58 AM 71.1 °F - 68.0 °F 90% 30.12 in 6.0 mi East 8.1 mph - N/A   Clear
2:58 AM 72.3 °F - 68.7 °F 88% 30.08 in 5.0 mi ESE 6.9 mph - N/A   Clear
3:58 AM 71.6 °F - 68.5 °F 90% 30.11 in 7.0 mi NW 10.4 mph - N/A   Clear
4:58 AM 70.2 °F - 68.4 °F 94% 30.12 in 10.0 mi North 5.8 mph - N/A   Clear
5:58 AM 69.8 °F - 68.4 °F 95% 30.13 in 5.0 mi NE 3.5 mph - N/A   Clear
6:58 AM 71.2 °F - 69.4 °F 94% 30.14 in 8.0 mi NNE 5.8 mph - N/A   Clear
7:28 AM 73.4 °F - 69.8 °F 88% 30.14 in 2.5 mi ENE 8.1 mph - N/A   Clear
7:39 AM 73.4 °F - 69.8 °F 88% 30.15 in 7.0 mi NE 5.8 mph - N/A   Clear
7:43 AM 73.4 °F - 69.8 °F 88% 30.14 in 7.0 mi ENE 8.1 mph - N/A   Clear
7:58 AM 73.4 °F - 69.8 °F 88% 30.15 in 7.0 mi NE 4.6 mph - N/A   Clear
8:28 AM 75.2 °F - 69.8 °F 83% 30.15 in 2.5 mi East 5.8 mph - N/A   Haze
8:36 AM 77.0 °F - 71.6 °F 83% 30.15 in 3.0 mi ENE 4.6 mph - N/A   Haze
8:51 AM 77.0 °F - 71.6 °F 83% 30.14 in 3.0 mi East 5.8 mph - N/A   Haze
8:55 AM 77.0 °F - 71.6 °F 83% 30.15 in 10.0 mi East 5.8 mph - N/A   Clear
8:58 AM 78.8 °F - 71.6 °F 78% 30.15 in 10.0 mi Variable 3.5 mph - N/A   Clear
9:55 AM 80.6 °F 84.6 °F 71.6 °F 74% 30.15 in 10.0 mi ENE 5.8 mph - N/A   Clear
10:55 AM 84.2 °F 90.9 °F 73.4 °F 70% 30.16 in 10.0 mi SSE 3.5 mph - N/A   Scattered Clouds
11:55 AM 86.0 °F 93.4 °F 73.4 °F 66% 30.16 in 10.0 mi Variable 3.5 mph - N/A   Mostly Cloudy
12:55 PM 89.6 °F 98.2 °F 73.4 °F 59% 30.13 in 10.0 mi Variable 4.6 mph - N/A   Mostly Cloudy
12:58 PM 87.6 °F 96.2 °F 74.3 °F 64% 30.13 in 10.0 mi SSE 5.8 mph - N/A   Mostly Cloudy
1:58 PM 90.1 °F 96.3 °F 71.1 °F 53% 30.09 in 10.0 mi Variable 4.6 mph - N/A   Mostly Cloudy
2:58 PM 90.9 °F 96.2 °F 70.2 °F 50% 30.07 in 10.0 mi East 5.8 mph - N/A   Partly Cloudy
3:58 PM 90.3 °F 95.2 °F 69.6 °F 50% 30.05 in 10.0 mi East 5.8 mph - N/A   Clear
4:58 PM 91.2 °F 97.0 °F 70.0 °F 50% 30.05 in 10.0 mi SE 6.9 mph - N/A   Partly Cloudy
5:58 PM 88.7 °F 94.8 °F 71.2 °F 56% 30.04 in 10.0 mi SE 5.8 mph - N/A   Clear
6:58 PM 84.6 °F 91.4 °F 73.4 °F 69% 30.05 in 10.0 mi South 4.6 mph - N/A   Clear
7:58 PM 81.0 °F 86.3 °F 74.3 °F 80% 30.06 in 10.0 mi South 6.9 mph - N/A   Clear
8:58 PM 79.0 °F - 73.9 °F 84% 30.08 in 10.0 mi West 2.3 mph - N/A   Clear
9:58 PM 77.9 °F - 73.6 °F 86% 30.10 in 10.0 mi WSW 3.5 mph - N/A   Clear
10:58 PM 76.5 °F - 73.4 °F 90% 30.11 in 10.0 mi SSW 4.6 mph - N/A   Clear
11:58 PM 75.6 °F - 73.0 °F 92% 30.11 in 10.0 mi West 3.5 mph - N/A   Clear